Regional Weather Roundup
Issued by NWS

Home | Current Version | Previous Version | Graphics & Text | Print | Product List | Glossary On
Versions: 1 2 3 4 5 6 7 8 9 10 11 12 13 14 15 16 17 18 19 20 21 22 23 24 25 26 27 28 29 30 31 32 33 34 35 36 37 38 39 40 41 42 43 44 45 46 47 48 49 50
000
ASUS45 KCYS 210410
RWRWY

WYOMING REGIONAL WEATHER ROUNDUP
NATIONAL WEATHER SERVICE CHEYENNE WY
1000 PM MDT MON OCT 20 2014

NOTE:  "FAIR" INDICATES FEW OR NO CLOUDS BELOW 12,000 FEET
WITH NO SIGNIFICANT WEATHER AND/OR OBSTRUCTIONS TO VISIBILITY.

WYZ001-210500-
YELLOWSTONE NATIONAL PARK

CITY           SKY/WX    TMP DP  RH WIND       PRES   REMARKS
LK YELLOWSTONE   N/A     36  30  79 NW3       30.11F
W YELLOWSTONE  NOT AVBL

$$
WYZ002>013-054>058-071-098>099-210500-
NORTHERN WYOMING

CITY           SKY/WX    TMP DP  RH WIND       PRES   REMARKS
JACKSON        CLEAR     37  30  75 N9        30.03F WCI  31
CODY           PTCLDY    54  28  37 CALM      29.92S
GREYBULL       CLEAR     52  27  38 CALM      29.86R
WORLAND        CLEAR     54  28  36 S13       29.87S
SHERIDAN       CLEAR     45  31  58 CALM      29.86F
BUFFALO        CLEAR     54  21  27 W9        29.93S
GILLETTE       CLEAR     61  32  33 S12       29.89F
HULETT         FAIR      64  36  34 SW7       29.90
NEWCASTLE      FAIR      61  32  33 E9        29.94

$$
WYZ014>020-022>026-101>103-210500-
CENTRAL WYOMING

CITY           SKY/WX    TMP DP  RH WIND       PRES   REMARKS
BIG PINEY      CLEAR     37  27  67 NW7       30.10R WCI  32
PINEDALE       CLEAR     37  30  75 CALM      30.11S
DUBOIS         FAIR      45  28  53 W7        30.07S
LANDER         CLEAR     62  30  29 SW13      29.97S
RIVERTON       CLEAR     53  30  41 SW10      29.98S
CASPER         CLEAR     51  32  48 SW9       30.00S
DOUGLAS        CLEAR     47  33  58 CALM      30.00S

$$
WYZ021-027>030-104>119-210500-
SOUTHERN WYOMING

CITY           SKY/WX    TMP DP  RH WIND       PRES   REMARKS
EVANSTON       CLEAR     51  32  48 S7        30.09S
KEMMERER       MOCLDY    50  32  50 CALM      30.10S
FORT BRIDGER   FAIR      51  33  50 S13       30.12S
ROCK SPRINGS   CLEAR     51  31  46 S10       30.09R
RAWLINS        MOCLDY    48  32  53 W8        30.11S
SARATOGA       CLOUDY    50  34  53 S3        30.15R
LARAMIE        CLEAR     41  33  73 CALM      30.15S
CHEYENNE       CLEAR     49  35  58 W6        30.10S
TORRINGTON     CLEAR     52  37  56 E8        29.99R
PINE BLUFFS    FAIR      57  34  41 S14       30.07S

$$



USA.gov is the U.S. government's official web portal to all federal, state and local government web resources and services.